Simultaneous Nadir Overpasses (SNOs) Predictions

Prediction of SNOs between LANDSAT-8 and NOAA-19 Satellite Orbit:

Table of predicted SNOs for the next 14.0 days since TLE Epoch: 2/20/2021
Index Date (LANDSAT-8) Time (LANDSAT-8) Lat,Lon (LANDSAT-8) SZA (LANDSAT-8 ) Date (NOAA-19) Time (NOAA-19) Lat,Lon (NOAA-19) SZA (NOAA-19 ) Distance(km) Time Diff (sec)
1 02/21/2021 23:05:12 80.22,-136.93 91.35 02/21/2021 23:04:14 80.24,-136.80 91.36 3.17 58
2 02/21/2021 23:54:39 -80.22, 30.67 88.68 02/21/2021 23:55:12 -80.22, 30.79 88.66 2.15 33
3 02/24/2021 05:28:21 80.25, 127.49 90.56 02/24/2021 05:28:26 80.24, 127.34 90.54 3.11 5
4 02/26/2021 11:02:05 -80.24,-136.06 90.29 02/26/2021 11:01:39 -80.25,-136.15 90.28 2.55 26
5 02/26/2021 11:51:31 80.24, 31.59 89.71 02/26/2021 11:52:38 80.23, 31.47 89.71 2.37 67
6 02/28/2021 16:35:47 80.26, -39.31 88.92 02/28/2021 16:34:51 80.25, -39.37 88.90 1.15 56
7 02/28/2021 17:25:15 -80.22, 128.04 91.15 02/28/2021 17:25:51 -80.24, 128.18 91.12 2.91 36
8 03/02/2021 22:58:57 80.24,-135.24 88.04 03/02/2021 22:59:03 80.25,-135.26 88.05 1.09 6
9 03/05/2021 04:32:40 -80.26, -38.49 92.78 03/05/2021 04:32:17 -80.25, -38.50 92.80 1.10 23



Historial Predications of SNOs between LANDSAT-8 and NOAA-19
